[[{"header":{"parameterUnit":"m.s-1","parameterCategory":1,"la1":30.2991,"la2":30.254,"lo1":-89.0895,"lo2":-89.0444,"dy":0.0017,"dx":0.0017,"nx":28,"ny":28,"refTime":"2023-08-18T03:00:00:Z","depth":0,"parameterNumber":2,"parameterNumberName":"U-component_of_WINDS"},"data":[0,0,0,0,0,0,0,0,0,0,0,0,0,0,0,0,0,0,0,0,0,0,0,0,0,0,0,0,0,0,0,0,0,0,0,0,0,0,0,0,0,0,0,0,0,0,0,0,0,0,0,0,0,0,0,0,0,0,-1.2931,-1.2931,0,-1.2859,-1.2859,-1.2858,-1.2799,-1.2798,-1.2798,-1.2797,-1.2724,-1.2723,-1.2721,0,0,0,0,0,0,0,0,0,0,0,0,0,-1.302,-1.3019,-1.2931,-1.2931,-1.293,-1.286,-1.2859,-1.2858,-1.2799,-1.2798,-1.2798,-1.2797,-1.2724,-1.2723,-1.2721,0,0,0,0,0,0,0,0,0,0,0,0,0,-1.2968,-1.3018,-1.2932,-1.2892,-1.2888,-1.286,-1.2858,-1.2857,-1.2799,-1.2798,-1.2797,-1.2797,-1.2725,-1.2723,-1.2721,-1.2727,0,0,-1.2715,-1.2714,0,0,0,0,0,0,0,0,-1.2971,-1.2965,-1.2899,-1.2895,-1.289,-1.2837,-1.2863,-1.2814,-1.2799,-1.2833,-1.2797,-1.2796,-1.2762,-1.2757,-1.2746,-1.2723,-1.272,-1.2714,-1.2713,-1.2712,-1.2712,0,0,0,0,0,0,0,-1.2975,-1.2968,-1.2903,-1.2898,-1.2892,-1.2878,-1.287,-1.2853,-1.2804,-1.283,-1.2825,-1.2818,-1.276,-1.2748,-1.2744,-1.2719,-1.2715,-1.2713,-1.2711,-1.2711,-1.2698,-1.2699,0,0,0,0,0,0,-1.2984,-1.2971,-1.2905,-1.2901,-1.2929,-1.2878,-1.2868,-1.2855,-1.2804,-1.2795,-1.2819,-1.2815,-1.2752,-1.2746,-1.2741,-1.2744,-1.2712,-1.271,-1.2709,-1.2697,-1.2698,-1.2699,0,0,0,0,0,0,-1.2986,-1.2979,-1.2908,-1.2935,-1.2925,-1.2877,-1.2863,-1.2854,-1.2842,-1.2795,-1.2786,-1.2815,-1.2751,-1.2744,-1.2731,-1.2741,-1.2709,-1.2708,-1.2696,-1.2698,-1.2699,-1.2751,0,0,0,0,0,0,-1.2989,-1.298,-1.2981,-1.2935,-1.2923,-1.2899,-1.2863,-1.2853,-1.2839,-1.2834,-1.279,-1.2782,-1.275,-1.2734,-1.2729,-1.2737,-1.2706,-1.2695,-1.2697,-1.2698,-1.2748,-1.2754,-1.2759,0,0,0,0,0,-1.2993,-1.2999,-1.2982,-1.2974,-1.2924,-1.29,-1.2893,-1.2856,-1.284,-1.2841,-1.2811,-1.2783,-1.2741,-1.2733,-1.2727,-1.2735,-1.2694,-1.2696,-1.2698,-1.2746,-1.2753,-1.2759,0,0,0,0,0,0,-1.3048,-1.2992,-1.2972,-1.2964,-1.2937,-1.289,-1.289,-1.2864,-1.2842,-1.2838,-1.2793,-1.2784,-1.2776,-1.2754,-1.2747,-1.2738,-1.2714,-1.2715,-1.2752,-1.2759,-1.2764,-1.2769,-1.2704,0,0,0,0,0,-1.3059,-1.3043,-1.2996,-1.2993,-1.2981,-1.2938,-1.2926,-1.29,-1.287,-1.2858,-1.2827,-1.28,-1.278,-1.2768,-1.2748,-1.2745,-1.2735,-1.2748,-1.2753,-1.2758,-1.2759,-1.2756,-1.2761,-1.2706,-1.2706,-1.2706,0,0,-1.3082,-1.305,-1.3042,-1.3003,-1.2979,-1.2965,-1.2928,-1.2914,-1.2903,-1.2856,-1.2842,-1.2819,-1.2785,-1.2777,-1.2772,-1.2759,-1.2772,-1.2761,-1.2765,-1.2763,-1.2759,-1.2764,-1.2769,-1.2707,-1.2707,-1.2707,0,0,-1.3116,-1.309,-1.3085,-1.3062,-1.3026,-1.2997,-1.2997,-1.2953,-1.2936,-1.2921,-1.2885,-1.2872,-1.2839,-1.2817,-1.2801,-1.2828,-1.2802,-1.2823,-1.2851,-1.2849,-1.2853,-1.2857,-1.2866,-1.287,-1.2824,-1.2825,-1.2825,0,-1.3149,-1.3125,-1.3085,-1.3073,-1.3058,-1.3015,-1.3009,-1.2989,-1.2949,-1.2939,-1.2925,-1.2883,-1.2858,-1.2844,-1.2851,-1.284,-1.2837,-1.2827,-1.2856,-1.2859,-1.2862,-1.287,-1.2874,-1.2827,-1.2827,-1.2827,-1.2826,0,-1.3167,-1.3152,-1.3152,-1.3114,-1.3098,-1.3089,-1.3049,-1.3038,-1.3014,-1.2988,-1.2973,-1.2941,-1.2914,-1.2909,-1.2885,-1.2892,-1.2885,-1.2864,-1.2839,-1.2871,-1.2878,-1.2881,-1.2831,-1.283,-1.2829,-1.2829,0,0,-1.3233,-1.3174,-1.3175,-1.3157,-1.3115,-1.3102,-1.3092,-1.3065,-1.3057,-1.3031,-1.3021,-1.2995,-1.2976,-1.2958,-1.2932,-1.293,-1.2954,-1.2909,-1.2907,-1.2918,-1.296,-1.2976,-1.298,-1.2936,-1.2937,-1.2937,-1.2963,0,-1.326,-1.3239,-1.3204,-1.3195,-1.318,-1.3139,-1.3131,-1.3105,-1.308,-1.3064,-1.3037,-1.3019,-1.2995,-1.2984,-1.298,-1.2952,-1.2961,-1.2949,-1.2927,-1.2927,-1.2936,-1.2984,-1.3,-1.3026,-1.2965,-1.2966,-1.2966,0,-1.3289,-1.3265,-1.3254,-1.3213,-1.3206,-1.3199,-1.3171,-1.3157,-1.3127,-1.3109,-1.309,-1.3061,-1.3049,-1.3027,-1.301,-1.3002,-1.2992,-1.2976,-1.2976,-1.2972,-1.2948,-1.2981,-1.3033,-1.3037,-1.297,-1.297,-1.297,0,-1.3338,-1.3303,-1.3292,-1.3278,-1.3231,-1.3227,-1.3207,-1.3175,-1.3162,-1.3138,-1.3129,-1.3105,-1.3091,-1.3073,-1.3039,-1.3026,-1.3026,-1.3001,-1.3011,-1.3012,-1.3012,-1.3012,-1.3063,-1.3006,-1.3006,-1.3006,-1.3006,0,-1.3371,-1.3366,-1.3313,-1.3307,-1.33,-1.326,-1.3255,-1.3232,-1.3204,-1.3193,-1.3157,-1.3147,-1.3102,-1.3087,-1.306,-1.305,-1.3045,-1.303,-1.3023,-1.3033,-1.3035,-1.3025,-1.3022,-1.3007,-1.3007,-1.3007,-1.3007,0,-1.3425,-1.3389,-1.3374,-1.3331,-1.332,-1.3317,-1.3279,-1.3272,-1.3245,-1.3231,-1.3226,-1.3185,-1.3165,-1.3129,-1.31,-1.3082,-1.3078,-1.3065,-1.3088,-1.3083,-1.3095,-1.3095,-1.3141,-1.3145,-1.3086,-1.3087,-1.3088,0,-1.3448,-1.3443,-1.3399,-1.3389,-1.337,-1.3354,-1.3339,-1.33,-1.3287,-1.3253,-1.3249,-1.3227,-1.3207,-1.3178,-1.3146,-1.3123,-1.311,-1.3128,-1.3106,-1.3117,-1.311,-1.311,-1.311,-1.3132,-1.3133,-1.3134,-1.3134,0,-1.3494,-1.3477,-1.3457,-1.3432,-1.3416,-1.3394,-1.3371,-1.3365,-1.332,-1.3307,-1.3287,-1.3272,-1.3242,-1.322,-1.3193,-1.3173,-1.3147,-1.3142,-1.3143,-1.3153,-1.3166,-1.3159,-1.31,-1.3141,-1.314,-1.3139,-1.3139,-1.3139,-1.3533,-1.3527,-1.3495,-1.3474,-1.3453,-1.3432,-1.3422,-1.3395,-1.3377,-1.3349,-1.3328,-1.3309,-1.328,-1.324,-1.3222,-1.3207,-1.3195,-1.3197,-1.3197,-1.3198,-1.3202,-1.3169,-1.3202,-1.3202,-1.3202,-1.3202,-1.3202,0,-1.3576,-1.3554,-1.3536,-1.3504,-1.3488,-1.3465,-1.3438,-1.3426,-1.341,-1.3385,-1.3366,-1.3343,-1.3322,-1.3289,-1.3265,-1.326,-1.3247,-1.3255,-1.3255,-1.3251,-1.3214,-1.3216,-1.3266,-1.3266,-1.3266,-1.3266,-1.3266,-1.3266,-1.3597,-1.3586,-1.3565,-1.3543,-1.352,-1.3501,-1.3488,-1.3469,-1.3448,-1.3424,-1.3406,-1.3384,-1.3356,-1.333,-1.331,-1.3301,-1.3294,-1.3306,-1.3293,-1.3259,-1.3253,-1.3247,-1.3248,-1.3304,-1.3305,-1.333,-1.333,-1.333]},{"header":{"parameterUnit":"m.s-1","parameterCategory":1,"la1":30.2991,"la2":30.254,"lo1":-89.0895,"lo2":-89.0444,"dy":0.0017,"dx":0.0017,"nx":28,"ny":28,"refTime":"2023-08-18T03:00:00:Z","depth":0,"parameterNumber":3,"parameterNumberName":"V-component_of_WINDS"},"data":[0,0,0,0,0,0,0,0,0,0,0,0,0,0,0,0,0,0,0,0,0,0,0,0,0,0,0,0,0,0,0,0,0,0,0,0,0,0,0,0,0,0,0,0,0,0,0,0,0,0,0,0,0,0,0,0,0,0,4.6551,4.655,0,4.6516,4.6516,4.6515,4.6449,4.6447,4.6446,4.6445,4.6411,4.6411,4.6411,0,0,0,0,0,0,0,0,0,0,0,0,0,4.656,4.656,4.6551,4.655,4.655,4.6516,4.6516,4.6515,4.6449,4.6447,4.6446,4.6444,4.6411,4.6411,4.6411,0,0,0,0,0,0,0,0,0,0,0,0,0,4.6544,4.656,4.6551,4.6513,4.6509,4.6516,4.6516,4.6515,4.6449,4.6447,4.6445,4.6444,4.641,4.6411,4.6411,4.6453,0,0,4.6413,4.6413,0,0,0,0,0,0,0,0,4.6545,4.6544,4.6519,4.6515,4.6511,4.6485,4.6506,4.6495,4.645,4.6472,4.6445,4.6443,4.6437,4.6435,4.6433,4.6452,4.645,4.6413,4.6413,4.6413,4.6413,0,0,0,0,0,0,0,4.6546,4.6545,4.6537,4.6518,4.6514,4.6498,4.6493,4.6504,4.6466,4.647,4.6465,4.6462,4.6434,4.6433,4.6432,4.645,4.6413,4.6413,4.6413,4.6414,4.6501,4.6503,0,0,0,0,0,0,4.6553,4.6546,4.6538,4.6536,4.6524,4.6499,4.6494,4.6495,4.6466,4.6459,4.6463,4.6459,4.6433,4.6431,4.643,4.6477,4.6413,4.6414,4.6414,4.6499,4.6502,4.6504,0,0,0,0,0,0,4.6553,4.6553,4.654,4.654,4.6537,4.6501,4.6503,4.6496,4.6494,4.6461,4.6454,4.6469,4.6431,4.643,4.6448,4.6475,4.6414,4.6414,4.6497,4.65,4.6503,4.6572,0,0,0,0,0,0,4.6554,4.6553,4.6569,4.6541,4.6537,4.6558,4.6504,4.6496,4.6494,4.6488,4.6464,4.6458,4.643,4.6448,4.6448,4.6475,4.6415,4.6494,4.6498,4.6502,4.6567,4.6577,4.6586,0,0,0,0,0,4.6554,4.659,4.657,4.6569,4.6555,4.656,4.6558,4.6524,4.6497,4.6512,4.6491,4.6458,4.6472,4.645,4.645,4.6477,4.6492,4.6497,4.6502,4.6563,4.6575,4.6585,0,0,0,0,0,0,4.6622,4.6585,4.6563,4.659,4.6578,4.6548,4.6566,4.6538,4.6534,4.6528,4.6487,4.6483,4.6506,4.6494,4.647,4.6516,4.6477,4.6482,4.6524,4.6535,4.6544,4.6547,4.6415,0,0,0,0,0,4.664,4.6646,4.6614,4.6641,4.6636,4.6603,4.6603,4.6579,4.6565,4.656,4.654,4.6528,4.653,4.6532,4.6531,4.6565,4.6559,4.6584,4.6593,4.6601,4.6605,4.6622,4.6633,4.6519,4.6519,4.6519,0,0,4.6678,4.6658,4.6665,4.6654,4.6642,4.665,4.6599,4.6609,4.6614,4.6561,4.6577,4.6563,4.6547,4.6573,4.6584,4.6563,4.6635,4.6607,4.6613,4.6613,4.6628,4.6639,4.6648,4.6522,4.6522,4.6521,0,0,4.675,4.6736,4.6757,4.6746,4.6728,4.6706,4.6711,4.6685,4.6673,4.6689,4.6649,4.6655,4.6659,4.6649,4.6644,4.6713,4.6683,4.6714,4.6763,4.6779,4.6788,4.6796,4.682,4.683,4.6719,4.6719,4.672,0,4.6798,4.6808,4.6771,4.6784,4.678,4.6733,4.6754,4.6745,4.6729,4.6728,4.6705,4.6708,4.6695,4.6718,4.6735,4.6733,4.6738,4.6717,4.679,4.6797,4.6804,4.6827,4.6836,4.6723,4.6723,4.6722,4.6722,0,4.6869,4.6876,4.6895,4.688,4.6879,4.6896,4.6862,4.6865,4.6841,4.6821,4.6837,4.6819,4.6814,4.6818,4.6794,4.6838,4.6826,4.6797,4.6757,4.6819,4.684,4.6848,4.6729,4.6727,4.6726,4.6725,0,0,4.6982,4.6947,4.6954,4.6947,4.6924,4.6929,4.6944,4.6939,4.6942,4.6933,4.6944,4.6949,4.6922,4.6917,4.6892,4.6907,4.6963,4.6876,4.6875,4.6893,4.7009,4.7031,4.7041,4.6943,4.6944,4.6945,4.7011,0,4.7049,4.7071,4.7039,4.707,4.7076,4.7031,4.7044,4.7032,4.7013,4.7016,4.6996,4.7,4.6964,4.6961,4.6974,4.6953,4.6985,4.6948,4.6953,4.6953,4.6958,4.7052,4.7075,4.7137,4.7018,4.702,4.7021,0,4.7129,4.7123,4.7154,4.713,4.7131,4.7143,4.7136,4.7139,4.7125,4.711,4.7105,4.7075,4.7088,4.705,4.7067,4.7042,4.7043,4.7033,4.7034,4.7033,4.6991,4.7053,4.7156,4.7166,4.7033,4.7032,4.7031,0,4.7209,4.7209,4.7227,4.7222,4.7194,4.7203,4.7192,4.7176,4.7175,4.7168,4.7167,4.7163,4.7161,4.7158,4.7128,4.7103,4.7149,4.7108,4.7138,4.7139,4.7149,4.7149,4.7254,4.715,4.715,4.715,4.715,0,4.7287,4.7307,4.7262,4.7273,4.7295,4.7258,4.7281,4.7265,4.7251,4.7258,4.722,4.7228,4.7188,4.7191,4.7168,4.7186,4.7185,4.7174,4.7168,4.7177,4.7179,4.7177,4.7171,4.7152,4.7152,4.7151,4.7151,0,4.7379,4.7349,4.7366,4.7338,4.7332,4.7349,4.7325,4.7335,4.7314,4.7324,4.7324,4.7292,4.7295,4.7264,4.7261,4.7245,4.7274,4.726,4.7279,4.7274,4.7305,4.7303,4.7412,4.7424,4.7314,4.7315,4.7316,0,4.743,4.7445,4.7418,4.7421,4.7411,4.7415,4.7414,4.7378,4.7379,4.7363,4.7375,4.7374,4.7371,4.7377,4.7354,4.7351,4.7336,4.7375,4.7336,4.7345,4.7336,4.7336,4.7337,4.7383,4.7384,4.7385,4.7386,0,4.7525,4.7509,4.7509,4.7503,4.7503,4.7497,4.7488,4.7493,4.7454,4.7456,4.7458,4.7456,4.7452,4.7452,4.7445,4.7433,4.7404,4.7399,4.7405,4.7415,4.7426,4.742,4.7301,4.7396,4.7395,4.7395,4.7394,4.7394,4.7598,4.7609,4.7592,4.7592,4.7582,4.7575,4.7583,4.7563,4.7564,4.7558,4.7537,4.7542,4.7527,4.7514,4.7506,4.7509,4.7491,4.75,4.7503,4.7506,4.7511,4.7426,4.7508,4.7508,4.7507,4.7507,4.7507,0,4.769,4.7677,4.7678,4.7667,4.7668,4.7639,4.7628,4.7631,4.7636,4.7624,4.7623,4.7625,4.7624,4.7601,4.7597,4.7605,4.7591,4.7605,4.7604,4.7602,4.7529,4.7523,4.7617,4.7617,4.7617,4.7617,4.7617,4.7617,4.7738,4.7755,4.7737,4.7749,4.7736,4.7741,4.7737,4.773,4.7721,4.7725,4.7724,4.7709,4.7692,4.7687,4.7686,4.7679,4.7679,4.7698,4.7686,4.7618,4.7607,4.7597,4.7592,4.7698,4.7698,4.7759,4.776,4.776]}]]